Powrót do katalogu

CZ-6A Y12 STAGE 2

AktywnyPO
NORAD 65549·ROCKET BODY·🇨🇳 China
Ta nazwa satelity nie została jeszcze potwierdzona przez oficjalne źródła.

Wystrzelony Sep 6, 2025 z Taiyuan Satellite Launch Center

Loading…

Następne Przeloty (najbliższe 24 godziny)

TLE

ŚwieżeSource: Space-Track

Epoka: Sep 13, 2026, 18:21 UTC

1 65549U 25199F   26256.76525608  .00000354  00000-0  60271-4 0  9997
2 65549  86.0166 350.7176 0065975 240.8801 118.5796 14.64434090 54441

Śledź CZ-6A Y12 STAGE 2 w czasie rzeczywistym z AllMySat

Download on the App Store